Zurück zum Katalog

STARLINK-36876

AktivKommunikationSSO
NORAD 67902·PAYLOAD·🇺🇸 United States

Gestartet Feb 21, 2026 von Vandenberg Space Force Base

Loading…

Nächste Überflüge (nächste 24 Stunden)

TLE

AktuellSource: CelesTrak SupGP

Epoche: Sep 14, 2026, 23:07 UTC

1 67902C 26035Z   26257.96368056 -.00039503  00000+0 -12267-2 0  2573
2 67902  97.2847 189.9361 0001908  96.0818  37.1542 15.33448734    15

Verfolge STARLINK-36876 in Echtzeit mit AllMySat

Download on the App Store